Weather in Agra

India     27˚11′23″N   77˚59′40″E
temp.,
°C
wind,
m/s
gust,
m/s
humid.,
%
clouds,
%
prec.,
mm/h
press.,
hPa
HPBL,
m
1 december, tue
tue123:30+19˚nw22310 0.0 101740
02:30+17˚nnw11280 0.0 101623
05:30+17˚nnw11260 0.0 101623
08:30+19˚nnw11240 0.0 101963
11:30+25˚sw11180 0.0 1019473
14:30+27˚nw22150 0.0 1016962
17:30+23˚w11210 0.0 101525
20:30+21˚nw11230 0.0 101723
2 december, wed
wed223:30+19˚n11250 0.0 101730
02:30+18˚nw11260 0.0 101523
05:30+17˚wnw22260 0.0 101539
08:30+19˚w23290 0.0 1018112
11:30+25˚wnw34200 0.0 1017574
14:30+28˚wnw35170 0.0 10131224
17:30+24˚wsw22230 0.0 101229
20:30+21˚nnw22260 0.0 101428
3 december, thu
thu323:30+20˚nnw11270 0.0 101323
02:30+18˚w11280 0.0 101323
05:30+17˚wnw12300 0.0 101329
08:30+20˚wnw12280 0.0 101673
11:30+26˚w12200 0.0 1015470
14:30+28˚w23170 0.0 10131131
17:30+24˚wnw11230 0.0 101223
20:30+22˚ese11240 0.0 101423
4 december, fri
fri423:30+20˚n01270 0.0 101323
02:30+18˚ne11300 0.0 101223
05:30+17˚e11320 0.0 101223
08:30+20˚sse11310 0.0 101483
11:30+26˚s22240 0.0 1014536
14:30+28˚ssw22230 0.0 10111038
17:30+24˚ese00290 0.0 101024
20:30+22˚ese12330 0.0 101231
5 december, sat
sat523:30+20˚ese22360 0.0 101239
02:30+19˚ese22400 0.0 101250
05:30+17˚se22430 0.0 101251
08:30+19˚ese23430 0.0 1015140
11:30+25˚sse33300 0.0 1014560
14:30+28˚sse22250 0.0 1011898
17:30+24˚sse12330 0.0 101131
20:30+22˚se22360 0.0 101335